Showing default

SYNCOM 1, 553

Orbit data source: Space-Track

SYNCOM 1, 553 is a payload satellite owned by GSFC (US) that was launched on Thu, 14 Feb 1963 UTC via a THOR DELTA B launch vehicle from the Air Force Eastern Test Range (AFETR). Payload-class satellites include a variety of spacecraft equipped with specific instruments for various scientific and technological missions. These include communications satellites like Starlink; space stations such as the ISS; scientific satellites like the Hubble; Earth observation satellites from companies like Planet Labs, Umbra, and HawkEye 360; GPS; miniature CubeSats for education and research; and military/defense satellites.

Not visible in the next 10 days
Identifier
553, 1963-004A
Orbit
Active
Country
Flag of USUS
Related business
Manufacturer
Hughes
Mission
Non-operational Civil Communications
Bus & Motor
HS-301, TE-M-375
Mass
68 kg wet, ~27 kg dry
Launch date (UTC)
1963-02-14 (63 years ago)
Launch vehicle
THOR DELTA B
Launch site
Air Force Eastern Test Range (AFETR)
Object type
Payload
Rocket body
Debris
Shape & HBR
Cyl, 0.4 m
Radar Cross Section
0.415 m²

Expand to show TLE details & history
Last TLE update: 6 days ago

TLE from 6 days ago
0 SYNCOM 1
1 00553U 63004A   25255.48841833 -.00000096  00000-0  00000-0 0  9990
2 00553  27.2891 278.4801 0794865 192.9621 164.8516  1.16484260 32821
Epoch: 2025-09-12T11:43Z
TLE epoch observation values (Epoch: 2025-09-12T11:43:19.343Z)
Latitude
0.00003°
Longitude
110.91605°
Altitude
34,713.684 km
Speed
2.992 km/s
True Right ascension
18h 33m 55s
True Declination
0° 00' 00"
Sunlit
Object was in daylight at epoch
Visualization orbit readout
Latitude
Unknown
Longitude
Unknown
Altitude
Unknown
Speed
Unknown
Apparent Right ascension
Unknown
Apparent Declination
Unknown
Sunlit
N/A
Visualization observer readout
Local Sidereal Time
18:49:13
Azimuth
Unknown
Elevation
Unknown
Doppler factor
Unknown
Orbital elements
Apogee altitude
34,811.084 km
Perigee altitude
28,745.261 km
Semi-major axis
38,156.309 km
Eccentricity
0.07949
Inclination
27.2891°
RAAN
278.4801°
Arg. of periapsis
192.9621°
True anomaly
167.02238°
Mean anomaly
164.8516°
Eccentric anomaly
165.95671°
Mean motion
0.2912 °/min
Orbital period
1,236.26 mins
BSTAR
0
Loading maneuver chart data...
Computing Atmospheric mass density...
Loading historical data...
Loading historical data...
Loading historical data...
Loading historical data...
Loading historical data...
Loading historical data...
Loading historical data...
Other satellites on launch #4 in the year 1963 (1963-02-14 UTC)

Documentation

Showing up to 5 results
|